Probability
0 0 0 0 0 0 0 0 0 0 0 0 0 0 0 0 0 0 0 0 0 0 0 0 0 0 0 0 0 0 0 0 0 0 0 0 0 0 0 0 0 0 0 0 0 0 0 0 0
0 0 0 0 0 0 0 0 0 0 0 0 0 0 0 0 0 0 0 0 0 0 0 0 0 0 0 0 0 0 0 0 0 0 0 0 0 0 0 0 0 0 0 0 0 0 0 0 0
0 0 0 0 0 0 0 0 0 0 0 0 0 0 0 0 0 0 0 0 0 0 0 0 0 0 0 0 0 0 0 0 0 0 0 0 0 0 0 0 0 0 0 0 0 0 0 0 0
0 0 0 0 0 0 0 0 0 0 0 0 0 0 0 0 0 0 0 0 0 0 0 0 0 0 0 0 0 0 0 0 0 0 0 0 0 0 0 0 0 0 0 0 0 0 0 0 0
0 0 0 0 0 0 0 0 0 0 0 0 0 0 0 0 0 0 0 0 0 0 0 0 0 0 0 0 0 0 0 0 0 0 0 0 0 0 0 0 0 0 0 0 0 0 0 0 0
0 0 0 0 0 0 0 0 0 0 0 0 0 0 0 0 0 0 0 0 0 0 0 0 0 0 0 0 0 0 0 0 0 0 0 0 0 0 0 0 0 0 0 0 0 0 0 0 0
0 0 0 0 0 0 0 0 0 0 0 0 0 0 0 0 0 0 0 0 0 0 0 0 0 0 0 0 0 0 0 0 0 0 0 0 0 0 0 0 0 0 0 0 0 0 0 0 0
0 0 0 0 0 0 0 0 0 0 0 0 0 0 0 0 0 0 0 0 0 0 0 0 0 0 0 0 0 0 0 0 0 0 0 0 0 0 0 0 0 0 0 0 0 0 0 0 0
0 0 0 0 0 0 0 0 0 0 0 0 0 0 0 0 0 0 0 0 0 0 0 0 0 0 0 0 0 0 0 0 0 0 0 0 0 0 0 0 0 0 0 0 0 0 0 0 0
0 0 0 0 0 0 0 0 0 0 0 0 0 0 0 0 0 0 0 0 0 0 0 0 0 0 0 0 0 0 0 0 0 0 0 0 0 0 0 0 0 0 0 0 0 0 0 0 0
0 0 0 0 0 0 0 0 0 0 0 0 0 0 0 0 0 0 0 0 0 0 0 0 0 0 0 0 0 0 0 0 0 0 0 0 0 0 0 0 0 0 0 0 0 0 0 0 0
0 0 0 0 0 0 0 0 0 0 0 0 0 0 0 0 0 0 0 0 0 0 0 0 0 0 0 0 0 0 0 0 0 0 0 0 0 0 0 0 0 0 0 0 0 0 0 0 0
0 0 0 0 0 0 0 0 0 0 0 0 0 0 0 0 0 0 0 0 0 0 0 0 0 0 0 0 0 0 0 0 0 0 0 0 0 0 0 0 0 0 0 0 0 0 0 0 0
0 0 0 0 0 0 0 0 0 0 0 0 0 0 0 0 0 0 0 0 0 0 0 0 0 0 0 0 0 0 0 0 0 0 0 0 0 0 0 0 0 0 0 0 0 0 0 0 0
0 0 0 0 0 0 0 0 0 0 0 0 0 0 0 0 0 0 0 0 0 0 0 0 0 0 0 0 0 0 0 0 0 0 0 0 0 0 0 0 0 0 0 0 0 0 0 0 0
0 0 0 0 0 0 0 0 0 0 0 0 0 0 0 0 0 0 0 0 0 0 0 0 0 0 0 0 0 0 0 0 0 0 0 0 0 0 0 0 0 0 0 0 0 0 0 0 0
0 0 0 0 0 0 0 0 0 0 0 0 0 0 0 0 0 0 0 0 0 0 0 0 0 0 0 0 0 0 0 0 0 0 0 0 0 0 0 0 0 0 0 0 0 0 0 0 0
0 0 0 0 0 0 0 0 0 0 0 0 0 0 0 0 0 0 0 0 0 0 0 0 0 0 0 0 0 0 0 0 0 0 0 0 0 0 0 0 0 0 0 0 0 0 0 0 0
0 0 0 0 0 0 0 0 0 0 0 0 0 0 0 0 0 0 0 0 0 0 0 0 0 0 0 0 0 0 0 0 0 0 0 0 0 0 0 0 0 0 0 0 0 0 0 0 0
0 0 0 0 0 0 0 0 0 0 0 0 0 0 0 0 0 0 0 0 0 0 0 0 0 0 0 0 0 0 0 0 0 0 0 0 0 0 0 0 0 0 0 0 0 0 0 0 0
0 0 0 0 0 0 0 0 0 0 0 0 0 0 0 0 0 0 0 0 0 0 0 0 0 0 0 0 0 0 0 0 0 0 0 0 0 0 0 0 0 0 0 0 0 0 0 0 0
0 0 0 0 0 0 0 0 0 0 0 0 0 0 0 0 0 0 0 0 0 0 0 0 0 0 0 0 0 0 0 0 0 0 0 0 0 0 0 0 0 0 0 0 0 0 0 0 0
0 0 0 0 0 0 0 0 0 0 0 0 0 0 0 0 0 0 0 0 0 0 0 0 0 0 0 0 0 0 0 0 0 0 0 0 0 0 0 0 0 0 0 0 0 0 0 0 0
0 0 0 0 0 0 0 0 0 0 0 0 0 0 0 0 0 0 0 0 0 0 0 0 0 0 0 0 0 0 0 0 0 0 0 0 0 0 0 0 0 0 0 0 0 0 0 0 0
0 0 0 0 0 0 0 0 0 0 0 0 0 0 0 0 0 0 0 0 0 0 0 0 0 0 0 0 0 0 0 0 0 0 0 0 0 0 0 0 0 0 0 0 0 0 0 0 0
0 0 0 0 0 0 0 0 0 0 0 0 0 0 0 0 0 0 0 0 0 0 0 0 0 0 0 0 0 0 0 0 0 0 0 0 0 0 0 0 0 0 0 0 0 0 0 0 0
0 0 0 0 0 0 0 0 0 0 0 0 0 0 0 0 0 0 0 0 0 0 0 0 0 0 0 0 0 0 0 0 0 0 0 0 0 0 0 0 0 0 0 0 0 0 0 0 0
0 0 0 0 0 0 0 0 0 0 0 0 0 0 0 0 0 0 0 0 0 0 0 0 0 0 0 0 0 0 0 0 0 0 0 0 0 0 0 0 0 0 0 0 0 0 0 0 0
0 0 0 0 0 0 0 0 0 0 0 0 0 0 0 0 0 0 0 0 0 0 0 0 0 0 0 0 0 0 0 0 0 0 0 0 0 0 0 0 0 0 0 0 0 0 0 0 0
0 0 0 0 0 0 0 0 0 0 0 0 0 0 0 0 0 0 0 0 0 0 0 0 0 0 0 0 0 0 0 0 0 0 0 0 0 0 0 0 0 0 0 0 0 0 0 0 0
Wind_Speed
5 3 3 5 7 6 2 2 3 3 2 1 2 5 7 6 4 3 2 6 10 9 7 8 11 12 11 11 10 10 11 12 13 15 16 16 16 16 15 15 15 15 16 17 17 18 18 18 18
2 2 6 7 6 2 3 3 4 4 4 4 3 4 4 1 1 5 4 5 10 10 7 8 11 12 12 11 11 10 11 11 12 15 16 16 16 15 15 15 14 15 16 16 17 17 18 17 17
1 4 6 5 4 6 5 4 5 1 4 3 3 2 2 3 3 6 5 8 9 8 7 9 11 12 12 12 11 11 11 11 12 14 16 16 15 15 14 14 14 14 15 16 17 17 17 17 17
3 5 6 5 2 4 4 4 5 5 2 2 4 3 1 0 5 4 7 9 10 8 7 9 12 13 12 12 12 11 11 11 13 14 15 15 15 14 14 14 14 14 14 15 16 17 16 16 17
5 5 5 2 1 1 1 3 6 4 4 2 4 4 1 2 2 7 10 9 10 8 7 8 11 12 12 12 12 12 11 12 12 13 14 15 14 14 13 13 13 13 14 15 15 16 16 16 16
5 5 4 1 2 2 1 4 4 3 3 3 5 5 2 1 5 8 9 8 8 8 7 7 10 11 11 11 11 11 11 11 12 13 14 14 14 13 13 13 13 13 13 14 15 16 16 16 16
6 5 4 4 1 1 2 4 4 4 4 5 6 5 1 1 5 8 8 7 7 7 7 6 6 7 9 10 9 9 9 10 11 12 13 12 12 13 12 11 12 13 13 14 14 15 15 15 15
6 6 3 3 3 3 3 4 3 6 4 3 5 7 5 5 6 7 7 7 7 7 7 6 6 5 5 6 9 9 9 9 10 11 11 11 11 11 10 9 11 12 12 13 14 14 14 15 15
4 6 3 5 6 4 4 3 2 1 5 2 2 3 3 7 10 9 6 6 7 8 7 7 6 6 5 5 7 8 8 9 10 9 11 9 5 6 6 7 10 11 12 12 13 14 14 13 13
5 4 5 4 6 5 6 5 6 4 2 2 1 1 3 9 12 12 11 12 12 12 10 8 7 7 6 5 4 4 4 5 5 5 6 5 4 4 5 8 9 9 10 12 12 13 11 8 5
4 5 3 2 2 5 6 4 4 8 5 8 8 7 8 9 11 12 12 12 12 11 11 10 9 8 7 5 4 3 3 3 4 5 5 5 4 3 4 3 4 5 6 5 7 6 4 4 3
4 2 2 1 1 5 7 6 4 6 7 3 6 8 11 14 16 16 15 12 10 10 12 11 10 9 8 6 5 4 4 4 4 5 6 5 4 3 3 3 3 3 3 4 3 3 4 4 4
3 3 1 2 3 3 5 3 3 6 5 2 5 9 12 16 15 12 9 8 9 11 12 12 11 11 10 7 6 6 5 5 5 5 5 6 5 5 4 3 3 3 3 4 4 4 4 4 4
4 4 2 2 2 2 3 1 1 5 1 3 5 9 11 13 13 9 9 11 12 13 12 11 12 12 11 9 8 7 6 5 5 5 6 6 5 5 5 4 4 3 3 3 4 4 4 3 3
4 5 2 1 1 1 2 3 6 3 1 3 4 6 8 9 8 11 12 13 13 11 10 11 12 12 12 12 10 7 6 6 6 6 7 7 6 7 6 5 5 4 4 5 4 4 3 3 3
5 4 1 2 1 1 3 7 4 1 2 4 5 6 7 9 10 10 10 9 8 8 9 11 9 12 13 12 10 8 7 7 7 6 7 8 8 8 7 6 6 5 5 5 4 4 3 3 3
3 3 4 2 2 2 4 7 4 1 0 4 6 7 8 9 10 12 11 10 9 9 9 11 12 13 13 12 9 8 7 8 7 7 7 9 10 9 8 7 6 7 6 5 5 3 3 3 3
6 4 4 4 2 3 3 7 8 5 3 6 7 8 8 10 15 12 11 10 9 8 9 10 11 12 11 9 8 7 8 8 7 8 9 10 10 11 9 7 7 8 6 6 6 5 3 3 4
8 7 4 2 1 4 4 7 11 8 5 9 9 9 9 12 10 6 7 8 9 9 10 12 13 12 10 9 10 10 10 8 7 8 9 12 11 12 11 8 8 8 8 9 9 5 5 3 3
6 5 3 1 1 2 2 8 9 7 8 8 9 9 9 9 8 6 6 6 9 10 12 12 14 12 13 11 9 6 5 5 7 6 8 11 12 12 11 12 10 10 9 9 10 7 6 5 6
4 6 5 3 2 4 3 8 6 5 4 5 6 7 7 8 8 6 4 5 5 8 10 11 12 12 12 10 5 3 3 2 4 7 8 10 11 12 12 13 11 11 11 11 13 13 12 9 9
5 5 5 5 3 2 2 5 8 5 9 7 7 5 5 5 4 4 3 2 3 5 5 7 8 8 8 8 8 10 9 10 9 7 6 7 10 11 12 12 13 12 11 11 12 14 11 9 9
5 4 5 3 4 1 1 2 10 4 6 7 5 5 5 4 2 2 2 2 3 3 1 2 3 4 5 7 9 9 10 9 4 3 5 7 7 9 10 11 11 12 11 12 12 13 13 11 11
8 8 7 6 4 2 4 6 9 5 7 4 3 5 6 5 4 4 4 5 6 6 5 3 2 1 2 4 6 8 9 7 5 5 5 5 5 6 8 9 10 10 10 11 12 13 15 13 12
5 8 4 1 1 7 2 4 12 8 5 4 4 5 5 4 5 6 8 8 8 8 7 6 5 3 2 1 2 4 5 5 6 6 6 5 4 5 7 8 9 9 10 10 11 12 13 15 14
7 9 9 8 7 5 2 8 10 6 5 3 2 1 2 5 5 6 7 7 7 7 7 7 6 5 4 2 1 1 2 2 3 4 4 5 5 6 6 7 8 9 9 9 10 10 11 11 14
8 5 7 8 3 1 6 7 11 3 1 1 3 4 4 5 6 7 7 8 7 8 7 6 6 6 5 3 2 2 2 2 3 4 4 4 4 4 6 6 8 8 9 9 9 9 11 11 13
6 11 6 7 7 5 5 5 6 5 5 4 4 5 4 5 6 6 7 7 7 6 6 7 7 6 5 4 3 3 3 3 3 3 4 4 5 5 5 6 7 8 9 9 9 10 10 11 12
7 5 6 6 6 8 5 9 8 7 5 7 6 5 5 5 5 5 6 6 6 7 7 7 7 7 6 6 4 4 4 3 3 3 4 4 4 5 6 6 7 8 9 9 10 12 10 12 13
5 9 10 8 6 5 4 9 3 5 5 6 6 5 4 5 5 5 6 6 7 8 8 8 7 7 6 5 5 4 4 4 4 4 5 4 5 5 5 6 7 8 9 9 11 13 12 13 14
Wind_Direction
7 45 67 55 53 53 147 210 183 160 193 153 139 149 154 158 167 185 134 140 133 135 139 133 127 125 122 119 114 110 108 107 107 108 106 102 100 97 96 94 93 91 90 89 90 89 87 85 84
14 51 53 58 85 96 253 220 185 190 167 126 86 99 114 137 101 122 140 152 137 136 136 134 130 129 127 124 118 113 110 108 108 110 108 104 102 100 99 98 96 92 90 90 91 91 89 87 86
66 52 77 74 118 178 210 209 187 147 151 139 97 76 133 164 159 165 171 148 134 133 133 136 135 134 132 128 122 117 113 110 111 111 109 106 104 102 101 100 96 92 91 91 92 93 91 90 88
82 48 56 78 184 211 216 196 166 136 136 107 120 97 37 98 174 175 144 141 134 133 133 141 140 139 136 132 127 124 120 115 114 113 110 108 106 105 103 101 97 93 92 93 94 94 93 92 90
61 75 61 45 285 284 253 159 151 150 152 126 123 122 121 359 122 133 140 143 141 137 138 146 143 142 140 138 134 130 126 120 117 115 113 111 110 108 107 105 101 96 95 96 97 97 94 92 92
62 71 92 188 287 341 131 145 144 137 139 134 126 131 170 10 135 146 145 145 144 142 142 146 146 145 145 143 138 135 131 126 122 120 118 117 116 114 113 111 107 103 100 100 100 98 97 95 94
112 109 153 174 191 300 180 151 159 155 164 184 153 130 264 211 169 150 141 137 139 142 143 144 146 147 148 144 140 136 132 128 125 124 122 121 120 118 115 114 113 111 107 105 104 102 101 100 97
125 107 112 157 173 228 171 157 179 163 176 143 142 148 205 200 150 134 126 133 143 150 153 150 148 146 143 143 143 139 134 129 124 119 116 116 115 115 112 112 116 116 112 111 108 105 104 102 100
94 81 157 195 187 210 163 154 142 158 126 153 206 189 212 138 131 131 134 152 163 169 169 162 157 152 147 145 147 142 136 130 123 119 119 110 104 105 107 119 121 120 117 115 112 108 105 102 100
91 131 210 199 189 182 171 167 163 134 137 197 215 154 119 136 151 163 172 178 182 184 183 177 170 162 154 150 141 139 132 130 126 127 123 114 113 112 113 121 121 120 118 118 117 112 106 98 87
124 172 209 191 181 156 151 157 161 140 199 216 202 178 152 158 169 181 186 187 189 187 186 185 180 171 164 156 152 147 136 133 135 138 134 126 118 114 107 109 110 105 103 98 105 98 90 94 96
119 170 188 172 150 151 155 152 173 189 212 243 214 163 165 173 185 191 192 189 185 186 192 189 184 180 176 167 168 164 159 158 158 157 150 144 139 137 136 130 125 113 107 109 103 104 103 97 96
134 152 109 80 88 121 125 155 203 239 252 24 130 152 180 187 196 199 194 187 187 193 195 193 188 187 184 178 179 179 179 177 170 165 167 162 159 160 154 148 141 134 127 129 127 124 122 115 105
147 116 91 56 65 86 136 147 270 266 199 131 154 182 198 201 200 193 194 196 199 201 197 193 193 192 189 190 190 190 187 181 175 179 180 174 168 167 165 162 160 156 151 144 141 140 135 128 122
103 98 64 30 66 49 101 279 245 267 148 192 204 213 219 226 214 210 208 206 203 202 196 194 196 195 196 198 198 196 192 186 188 189 185 183 178 175 174 175 178 173 156 143 133 129 124 131 130
72 94 190 276 170 97 149 256 272 353 196 239 244 243 241 240 231 229 224 219 206 196 196 197 194 198 201 202 201 201 198 196 197 192 190 191 187 181 180 185 190 171 159 158 156 152 146 156 156
65 147 208 258 178 139 177 242 279 41 33 273 268 255 248 253 249 239 228 222 211 202 197 196 197 200 203 203 202 204 202 203 201 196 196 196 195 191 190 195 189 171 170 170 171 168 160 169 169
182 183 199 225 195 154 205 257 278 283 289 281 276 266 255 250 248 238 228 224 217 208 202 201 202 203 199 199 202 206 210 210 206 203 201 197 200 198 198 199 189 177 177 180 183 173 159 156 155
153 154 181 215 161 170 229 267 279 286 280 273 270 263 258 256 261 255 234 220 213 211 208 208 206 205 195 198 205 210 216 213 209 208 203 201 201 200 202 200 193 188 193 194 187 168 164 156 141
127 141 164 97 71 143 284 277 273 274 256 248 257 264 263 270 284 274 252 224 214 216 216 214 213 206 202 206 205 204 203 206 209 205 207 206 204 202 203 204 200 196 198 193 186 173 172 172 177
146 160 175 163 93 50 349 308 302 296 295 283 262 259 265 261 272 283 271 240 223 223 219 216 215 211 207 204 182 166 167 178 199 209 213 210 208 206 206 207 205 201 199 200 196 193 187 193 196
200 206 156 138 114 299 24 296 292 303 316 303 299 298 296 294 280 287 295 290 254 246 232 220 216 210 204 191 191 196 206 218 220 215 213 207 208 211 210 210 209 206 205 205 201 200 199 191 199
163 108 113 112 126 32 325 216 280 312 288 285 303 334 342 333 330 353 7 5 1 348 318 223 203 201 192 190 198 205 219 228 222 201 208 212 213 215 215 214 214 213 211 210 204 201 203 205 206
130 84 64 54 77 259 213 185 270 244 228 264 327 346 352 357 21 35 35 41 33 28 33 40 85 112 157 182 197 210 222 226 220 213 216 219 221 223 223 219 220 220 218 214 210 206 208 212 216
124 106 77 12 340 245 235 210 248 249 241 245 283 314 338 3 32 39 38 37 33 32 33 38 55 53 54 134 200 221 232 231 231 227 223 224 226 229 229 225 228 228 225 219 214 211 212 214 216
178 146 159 182 211 259 236 232 252 259 267 257 254 281 26 38 42 47 43 43 38 36 36 39 45 41 33 33 336 279 253 243 247 241 234 230 232 232 231 229 234 237 233 226 219 218 217 215 219
148 177 146 120 114 251 255 270 297 284 256 151 122 97 71 57 51 50 45 44 40 38 35 37 42 37 28 17 6 354 324 280 269 266 253 248 245 241 234 233 237 241 240 236 231 234 226 220 222
148 142 123 139 160 222 266 252 233 222 191 150 126 113 94 75 61 52 45 40 37 36 34 38 41 35 23 19 14 3 345 319 298 289 276 267 260 251 244 240 240 243 243 241 239 244 239 235 232
129 149 143 142 157 165 231 259 223 200 173 158 157 138 119 92 70 53 43 34 34 34 34 33 30 26 18 9 4 5 352 337 323 307 294 285 276 265 253 246 244 244 245 242 243 245 243 243 244
177 173 150 162 200 187 187 260 264 194 188 167 149 129 108 86 69 55 45 36 34 30 26 26 22 19 6 356 2 4 357 350 342 327 315 303 289 275 263 257 251 248 247 244 244 248 246 247 248